When you browse on this site, cookies collect data to enhance your experience and personalize the content and advertising you see.
Visit our Privacy Policy to learn more. By continuing to use the site, you agree to this use of cookies and data.
  • In Portugal
  • List of Countries
  • For 7 days
  • Water Temperature
  • Weather Map
  • Weather Widgets
  • user-avatar
    Login

    Hourly Weather Sligo

    Today, 25 August, Sunday

    Time Temperature Precipitation Wind Pressure Humidity
    00:00 +16°C° 0 mm 2 mps 759 mmHg 97%
    01:00 +15°C° 0 mm 1 mps 759 mmHg 97%
    02:00 +15°C° 0 mm 1 mps 760 mmHg 97%
    03:00 +15°C° 0 mm 1 mps 760 mmHg 97%
    04:00 +15°C° 0 mm 1 mps 760 mmHg 97%
    05:00 +15°C° 0 mm 1 mps 760 mmHg 97%
    06:00 +16°C° 0 mm 1 mps 760 mmHg 95%
    07:00 +18°C° 0 mm 1 mps 760 mmHg 93%
    08:00 +19°C° 0 mm 1 mps 761 mmHg 91%
    09:00 +18°C° 0 mm 2 mps 761 mmHg 90%
    10:00 +18°C° 0 mm 2 mps 761 mmHg 89%
    11:00 +19°C° 0 mm 2 mps 761 mmHg 88%
    12:00 +19°C° 0 mm 2 mps 761 mmHg 85%
    13:00 +20°C° 0 mm 2 mps 761 mmHg 83%
    14:00 +20°C° 0 mm 2 mps 761 mmHg 80%
    15:00 +20°C° 0 mm 2 mps 761 mmHg 83%
    16:00 +19°C° 0 mm 2 mps 761 mmHg 85%
    17:00 +18°C° 0 mm 3 mps 761 mmHg 88%
    18:00 +17°C° 0 mm 2 mps 761 mmHg 90%
    19:00 +16°C° 0 mm 2 mps 761 mmHg 93%
    20:00 +15°C° 0 mm 1 mps 762 mmHg 95%
    21:00 +14°C° 0 mm 1 mps 761 mmHg 95%
    22:00 +14°C° 0 mm 1 mps 761 mmHg 95%
    23:00 +13°C° 0 mm 1 mps 761 mmHg 95%

    Tomorrow, 26 August, Monday

    Time Temperature Precipitation Wind Pressure Humidity
    00:00 +13°C° 0 mm 1 mps 761 mmHg 96%
    01:00 +12°C° 0 mm 2 mps 761 mmHg 96%
    02:00 +12°C° 0 mm 2 mps 761 mmHg 97%
    03:00 +10°C° 0 mm 2 mps 760 mmHg 97%
    04:00 +10°C° 0 mm 2 mps 760 mmHg 97%
    05:00 +10°C° 0 mm 3 mps 760 mmHg 97%
    06:00 +11°C° 0 mm 3 mps 760 mmHg 94%
    07:00 +13°C° 0 mm 3 mps 760 mmHg 90%
    08:00 +14°C° 0 mm 3 mps 760 mmHg 86%
    09:00 +16°C° 0 mm 3 mps 760 mmHg 84%
    10:00 +17°C° 0 mm 4 mps 760 mmHg 82%
    11:00 +17°C° 0 mm 4 mps 760 mmHg 80%
    12:00 +17°C° 0.1 mm 4 mps 759 mmHg 81%
    13:00 +17°C° 0.1 mm 4 mps 759 mmHg 83%
    14:00 +17°C° 0.1 mm 4 mps 759 mmHg 84%
    15:00 +17°C° 0.1 mm 4 mps 759 mmHg 85%
    16:00 +17°C° 0.1 mm 3 mps 759 mmHg 87%
    17:00 +16°C° 0.1 mm 3 mps 759 mmHg 88%
    18:00 +16°C° 0.5 mm 3 mps 759 mmHg 90%
    19:00 +14°C° 0.5 mm 3 mps 759 mmHg 93%
    20:00 +14°C° 0.5 mm 3 mps 759 mmHg 95%
    21:00 +14°C° 0.7 mm 3 mps 759 mmHg 96%
    22:00 +14°C° 0.7 mm 3 mps 759 mmHg 96%
    23:00 +14°C° 0.7 mm 3 mps 759 mmHg 97%

    Day after tomorrow, 27 August, Tuesday

    Time Temperature Precipitation Wind Pressure Humidity
    00:00 +14°C° 0.9 mm 3 mps 758 mmHg 97%
    01:00 +14°C° 0.9 mm 3 mps 758 mmHg 98%
    02:00 +14°C° 0.9 mm 3 mps 758 mmHg 98%
    03:00 +14°C° 0.3 mm 3 mps 758 mmHg 98%
    04:00 +14°C° 0.3 mm 3 mps 758 mmHg 98%
    05:00 +14°C° 0.3 mm 3 mps 757 mmHg 97%
    06:00 +14°C° 0.3 mm 3 mps 757 mmHg 97%
    07:00 +14°C° 0.3 mm 3 mps 757 mmHg 96%
    08:00 +14°C° 0.3 mm 4 mps 758 mmHg 96%
    09:00 +14°C° 0.2 mm 4 mps 757 mmHg 95%
    10:00 +14°C° 0.2 mm 4 mps 757 mmHg 95%
    11:00 +15°C° 0.2 mm 4 mps 757 mmHg 95%
    12:00 +15°C° 0.3 mm 4 mps 757 mmHg 95%
    13:00 +15°C° 0.3 mm 4 mps 757 mmHg 95%
    14:00 +16°C° 0.3 mm 3 mps 756 mmHg 95%
    15:00 +16°C° 0.3 mm 3 mps 756 mmHg 95%
    16:00 +17°C° 0.3 mm 3 mps 756 mmHg 95%
    17:00 +17°C° 0.3 mm 3 mps 756 mmHg 96%
    18:00 +16°C° 1.9 mm 3 mps 756 mmHg 97%
    19:00 +16°C° 1.9 mm 2 mps 756 mmHg 97%
    20:00 +15°C° 1.9 mm 2 mps 756 mmHg 98%
    21:00 +15°C° 1.4 mm 2 mps 756 mmHg 98%
    22:00 +15°C° 1.4 mm 2 mps 756 mmHg 98%
    23:00 +15°C° 1.4 mm 2 mps 756 mmHg 98%

    28 August, Wednesday

    Time Temperature Precipitation Wind Pressure Humidity
    00:00 +13°C° 0.9 mm 3 mps 755 mmHg 98%
    01:00 +13°C° 0.9 mm 3 mps 755 mmHg 98%
    02:00 +13°C° 0.9 mm 3 mps 755 mmHg 97%
    03:00 +13°C° 0.2 mm 3 mps 755 mmHg 97%
    04:00 +12°C° 0.2 mm 3 mps 755 mmHg 96%
    05:00 +12°C° 0.2 mm 3 mps 755 mmHg 96%
    06:00 +12°C° 0 mm 3 mps 755 mmHg 93%
    07:00 +12°C° 0 mm 3 mps 756 mmHg 91%
    08:00 +13°C° 0 mm 3 mps 756 mmHg 88%
    09:00 +13°C° 0 mm 3 mps 756 mmHg 84%
    10:00 +14°C° 0 mm 3 mps 756 mmHg 79%
    11:00 +14°C° 0 mm 3 mps 756 mmHg 75%
    12:00 +16°C° 0 mm 3 mps 756 mmHg 71%
    13:00 +16°C° 0 mm 3 mps 755 mmHg 67%
    14:00 +16°C° 0 mm 3 mps 755 mmHg 63%
    15:00 +16°C° 0 mm 2 mps 755 mmHg 67%
    16:00 +15°C° 0 mm 2 mps 755 mmHg 71%
    17:00 +15°C° 0 mm 1 mps 755 mmHg 74%
    18:00 +14°C° 0 mm 2 mps 756 mmHg 80%
    19:00 +12°C° 0 mm 2 mps 756 mmHg 85%
    20:00 +10°C° 0 mm 3 mps 756 mmHg 90%
    21:00 +10°C° 0 mm 3 mps 756 mmHg 91%
    22:00 +9°C° 0 mm 3 mps 756 mmHg 92%
    23:00 +9°C° 0 mm 3 mps 757 mmHg 93%

    29 August, Thursday

    Time Temperature Precipitation Wind Pressure Humidity
    00:00 +8°C° 0 mm 4 mps 756 mmHg 94%
    01:00 +8°C° 0 mm 4 mps 756 mmHg 94%
    02:00 +8°C° 0 mm 4 mps 756 mmHg 94%
    03:00 +9°C° 0.1 mm 5 mps 756 mmHg 93%
    04:00 +10°C° 0.1 mm 5 mps 755 mmHg 92%
    05:00 +11°C° 0.1 mm 6 mps 755 mmHg 90%
    06:00 +11°C° 0.3 mm 6 mps 755 mmHg 91%
    07:00 +13°C° 0.3 mm 6 mps 755 mmHg 91%
    08:00 +14°C° 0.3 mm 7 mps 755 mmHg 91%
    09:00 +15°C° 0.4 mm 7 mps 755 mmHg 91%
    10:00 +15°C° 0.4 mm 7 mps 755 mmHg 90%
    11:00 +15°C° 0.4 mm 7 mps 755 mmHg 89%
    12:00 +16°C° 0.4 mm 7 mps 756 mmHg 88%
    13:00 +16°C° 0.4 mm 7 mps 756 mmHg 86%
    14:00 +17°C° 0.4 mm 7 mps 756 mmHg 85%
    15:00 +16°C° 0.3 mm 7 mps 756 mmHg 87%
    16:00 +15°C° 0.3 mm 6 mps 756 mmHg 88%
    17:00 +15°C° 0.3 mm 6 mps 756 mmHg 90%
    18:00 +14°C° 0.2 mm 6 mps 756 mmHg 92%
    19:00 +14°C° 0.2 mm 5 mps 757 mmHg 93%
    20:00 +13°C° 0.2 mm 5 mps 757 mmHg 94%
    21:00 +13°C° 0.2 mm 5 mps 757 mmHg 94%
    22:00 +13°C° 0.2 mm 5 mps 757 mmHg 94%
    23:00 +13°C° 0.2 mm 5 mps 757 mmHg 94%

    30 August, Friday

    Time Temperature Precipitation Wind Pressure Humidity
    00:00 +13°C° 0.1 mm 5 mps 757 mmHg 94%
    01:00 +13°C° 0.1 mm 5 mps 758 mmHg 94%
    02:00 +13°C° 0.1 mm 5 mps 758 mmHg 94%
    03:00 +12°C° 0 mm 4 mps 758 mmHg 94%
    04:00 +12°C° 0 mm 4 mps 758 mmHg 94%
    05:00 +11°C° 0 mm 4 mps 758 mmHg 94%
    06:00 +12°C° 0 mm 4 mps 758 mmHg 91%
    07:00 +13°C° 0 mm 5 mps 758 mmHg 89%
    08:00 +14°C° 0 mm 5 mps 758 mmHg 86%
    09:00 +14°C° 0.4 mm 5 mps 758 mmHg 89%
    10:00 +14°C° 0.4 mm 5 mps 758 mmHg 92%
    11:00 +14°C° 0.4 mm 4 mps 758 mmHg 94%
    12:00 +14°C° 0.8 mm 4 mps 757 mmHg 94%
    13:00 +14°C° 0.8 mm 4 mps 756 mmHg 94%
    14:00 +14°C° 0.8 mm 4 mps 755 mmHg 93%
    15:00 +14°C° 1.8 mm 5 mps 754 mmHg 94%
    16:00 +13°C° 1.8 mm 6 mps 753 mmHg 95%
    17:00 +12°C° 1.8 mm 7 mps 752 mmHg 96%
    18:00 +14°C° 0.5 mm 7 mps 752 mmHg 96%
    19:00 +15°C° 0.5 mm 7 mps 751 mmHg 95%
    20:00 +15°C° 0.5 mm 6 mps 751 mmHg 95%
    21:00 +14°C° 0.2 mm 7 mps 752 mmHg 95%
    22:00 +12°C° 0.2 mm 8 mps 752 mmHg 94%
    23:00 +11°C° 0.2 mm 8 mps 753 mmHg 94%
    Show more